Location: Muchchint?la
(16.9106°N, 80.2664°E)
Time: 19:25:20
(UTC+00:00)

IUS-14 SRM-1 - Pass Details

Date: 14 April 2024
Orbit: 413 x 34218 km, 26.6° (Epoch: 19 May)

Event Time Altitude Azimuth Distance (km) Brightness Sun altitude
Rises 23:51:22 0° 290° (WNW) 7,788 8.1 -8.5°
Reaches altitude 10° 23:59:04 10° 293° (WNW) 4,308 6.9 -6.7°
Maximum altitude 00:06:59 69° 16° (NNE) 691 3.5 -4.8°
Drops below altitude 10° 00:09:46 10° 102° (ESE) 1,569 6.5 -4.2°
Sets 00:11:14 0° 105° (ESE) 2,330 7.4 -3.8°
